Regional Weather Roundup
Issued by NWS

Home | Current Version | Previous Version | Graphics & Text | Print | Product List | Glossary On
Versions: 1 2 3 4 5 6 7 8 9 10 11 12 13 14 15 16 17 18 19 20 21 22 23 24 25 26 27 28 29 30 31 32 33 34 35 36 37 38 39 40 41 42 43 44 45 46 47 48 49 50
000
ASUS43 KDTX 290610
RWRMI
MICHIGAN HOURLY REGIONAL WEATHER ROUNDUP
NATIONAL WEATHER SERVICE DETROIT/PONTIAC MI
100 AM EST MON DEC 29 2014

NOTE: "FAIR" INDICATES FEW OR NO CLOUDS BELOW 12,000 FEET WITH NO
SIGNIFICANT WEATHER AND/OR OBSTRUCTION TO VISIBILITY.

MIZ047>049-052>055-059>063-066>070-074>076-081>083-290700-
SOUTHEAST LOWER MICHIGAN

CITY           SKY/WX    TMP DP  RH WIND       PRES   REMARKS
ADRIAN         CLEAR     26  20  77 NW3       30.23R
6HR MIN TEMP:  26; 6HR MAX TEMP:  30;

ALMA           CLOUDY    28  18  67 NW8       30.22S WCI  19
ANN ARBOR      CLEAR     26  20  77 NW3       30.20R
BAD AXE        CLOUDY    28  15  60 NW12      30.19R WCI  17
CARO           CLOUDY    28  19  66 W9        30.20R WCI  20
DETROIT CITY   CLEAR     30  20  66 NW5       30.21R WCI  25
6HR MIN TEMP:  30; 6HR MAX TEMP:  34;

DETROIT        PTCLDY    27  20  75 NW6       30.22R WCI  20
6HR MIN TEMP:  26; 6HR MAX TEMP:  31;

FLINT          CLOUDY    29  17  61 NW16G22   30.21S WCI  17
6HR MIN TEMP:  27; 6HR MAX TEMP:  31;

GROSSE ILE     CLEAR     27  21  80 W5        30.21R WCI  21
HILLSDALE      CLEAR     25  21  84 NW7       30.19S WCI  17
6HR MIN TEMP:  25; 6HR MAX TEMP:  29;

HOWELL         CLOUDY    27  18  67 N10G16    30.21R WCI  18
6HR MIN TEMP:  25; 6HR MAX TEMP:  28;


CITY           SKY/WX    TMP DP  RH WIND       PRES   REMARKS
JACKSON        CLOUDY    28  20  71 NW6       30.21R WCI  22
6HR MIN TEMP:  23; 6HR MAX TEMP:  28;

LAMBERTVILLE   CLEAR     28  23  80 CALM      30.23S
LANSING        CLOUDY    28  18  66 CALM      30.22S
6HR MIN TEMP:  27; 6HR MAX TEMP:  29;

LAPEER         CLOUDY    28  18  66 NW6       30.20R WCI  22
MASON          CLOUDY    28  16  63 NW7       30.22R WCI  20
MONROE         CLEAR     27  21  80 CALM      30.21R
MT. CLEMENS    CLEAR     27  22  84 NW7       30.18R WCI  19
6HR MIN TEMP:  27; 6HR MAX TEMP:  31;

PONTIAC        CLOUDY    27  19  72 NW8       30.18R WCI  19
6HR MIN TEMP:  25; 6HR MAX TEMP:  29;

PORT HOPE        N/A     30  16  56 NW8       30.17R WCI  22
6HR MIN TEMP:  29; 6HR MAX TEMP:  32;

PORT HURON     CLEAR     25  23  93 W3        30.20R
TRI CITIES     CLOUDY    29  14  53 NW6       30.22R WCI  23
6HR MIN TEMP:  28; 6HR MAX TEMP:  30;

TROY           CLEAR     30  20  67 NW7       30.21R WCI  23
SAGINAW HB     CLOUDY    28  18  64 NW9       30.22R WCI  20
$$
MIZ043>046-050>051-056>058-064>065-071>073-077>080-290700-
SOUTHWEST LOWER MICHIGAN

CITY           SKY/WX    TMP DP  RH WIND       PRES   REMARKS
BATTLE CREEK   CLOUDY    29  21  72 SW3       30.22R
6HR MIN TEMP:  25; 6HR MAX TEMP:  31;

BENTON HARBOR  CLOUDY    27  21  78 S3        30.23S
6HR MIN TEMP:  23; 6HR MAX TEMP:  28;

BIG RAPIDS     CLOUDY    26  18  72 NW6       30.20S WCI  19
6HR MIN TEMP:  26; 6HR MAX TEMP:  28;

COLDWATER      CLOUDY    27  22  82 NW3       30.21S
6HR MIN TEMP:  23; 6HR MAX TEMP:  28;

FREMONT        CLOUDY    28  17  65 N9        30.23R WCI  19
HOLLAND        CLOUDY    32  20  61 CALM      30.24R
6HR MIN TEMP:  31; 6HR MAX TEMP:  33;

GRAND RAPIDS   CLOUDY    29  20  69 NW5       30.22S WCI  24
6HR MIN TEMP:  28; 6HR MAX TEMP:  30;

IONIA          CLOUDY    29  20  67 NW8       30.21S WCI  21
KALAMAZOO      CLOUDY    29  22  75 SW3       30.23R
6HR MIN TEMP:  27; 6HR MAX TEMP:  30;

LUDINGTON      MOCLDY    25  12  58 NW7       30.26R WCI  17
MARSHALL       CLOUDY    28  20  71 CALM      30.22R
MOUNT PLEASANT CLOUDY    27  17  65 CALM      30.21R
6HR MIN TEMP:  27; 6HR MAX TEMP:  29;

MUSKEGON       CLOUDY    30  19  63 VRB7      30.24R WCI  23
6HR MIN TEMP:  30; 6HR MAX TEMP:  32;

SOUTH HAVEN    CLOUDY    33  23  67 E3        30.23S
$$
MIZ016>042-290700-
NORTHERN LOWER MICHIGAN

CITY           SKY/WX    TMP DP  RH WIND       PRES   REMARKS
ALPENA         CLOUDY    21  10  62 NW8       30.20R WCI  11
6HR MIN TEMP:  21; 6HR MAX TEMP:  26; 6HR PCP: TRACE;

BEAVER ISLAND  MOCLDY    19  12  74 W5        30.23S WCI  12
6HR MIN TEMP:  19; 6HR MAX TEMP:  23;

BELLAIRE       MOCLDY    22  10  58 NW7       30.24R WCI  14
6HR MIN TEMP:  22; 6HR MAX TEMP:  28;

CADILLAC       LGT SNOW  22  17  83 NW6       30.17R WCI  14
CHARLEVOIX     CLOUDY    21  11  66 NW13      30.25S WCI   9
6HR MIN TEMP:  21; 6HR MAX TEMP:  26;

FRANKFORT      CLOUDY    22  13  69 NW13G18   30.26R WCI  10
GAYLORD        CLOUDY    18   8  65 VRB6      30.16S WCI  10
6HR MIN TEMP:  18; 6HR MAX TEMP:  24; 6HR PCP: TRACE;

GRAYLING       FLURRIES  21  15  79 NW10      30.19R WCI   9
HARBOR SPRINGS CLOUDY    20   8  58 W5        30.22R WCI  14
HOUGHTON LAKE  LGT SNOW  22  16  78 NW8       30.18R WCI  12
6HR MIN TEMP:  22; 6HR MAX TEMP:  26; 6HR PCP: TRACE;

MANISTEE       CLOUDY    25  16  68 N9        30.25R WCI  15
OSCODA         CLOUDY    26  17  68 NW9       30.19R WCI  16
PELLSTON       CLOUDY    21  10  62 NW9       30.21S WCI  11
6HR MIN TEMP:  20; 6HR MAX TEMP:  24; 6HR PCP: TRACE;

ROGERS CITY    CLOUDY    21  11  65 W8        30.20S WCI  11
TRAVERSE CITY  FLURRIES  23  13  65 NW16      30.24R WCI  10
6HR MIN TEMP:  23; 6HR MAX TEMP:  28; 6HR PCP: TRACE;

$$
MIZ007>008-015-290700-
EASTERN UPPER MICHIGAN

CITY           SKY/WX    TMP DP  RH WIND       PRES   REMARKS
KINROSS        CLOUDY    16  14  93 W9        30.17S WCI   4
6HR MIN TEMP:  16; 6HR MAX TEMP:  19;

MACKINAC ISLAN PTCLDY    19  13  76 W14       30.19S WCI   6
6HR MIN TEMP:  19; 6HR MAX TEMP:  22;

NEWBERRY       PTCLDY    10   9  95 SW7       30.18S WCI   0
S. S. MARIE    CLOUDY    19  15  84 SW6       30.18R WCI  11
6HR MIN TEMP:  19; 6HR MAX TEMP:  22; 6HR PCP:  0.03;

MUNISING         N/A     18  10  71 W9G21     30.23R WCI   7
6HR MIN TEMP:  16; 6HR MAX TEMP:  20; 6HR PCP:  0.03;

$$
MIZ004>006-011>014-085-290700-
CENTRAL UPPER MICHIGAN

CITY           SKY/WX    TMP DP  RH WIND       PRES   REMARKS
MANISTIQUE     PTCLDY     8   5  86 W7        30.24R WCI  -3
ESCANABA       CLEAR      7   1  78 W6        30.27S WCI  -3
6HR MIN TEMP:   7; 6HR MAX TEMP:  16;

MENOMINEE      CLEAR     12   5  73 NW3       30.30R
6HR MIN TEMP:  12; 6HR MAX TEMP:  21;

SAWYER-GWINN   MOCLDY     3  -1  84 CALM      30.21S
$$
MIZ001>003-009>011-084-290700-
WESTERN UPPER MICHIGAN

CITY           SKY/WX    TMP DP  RH WIND       PRES   REMARKS
IRON MOUNTAIN    N/A      1  -3  83 CALM      30.23S
6HR MIN TEMP:  -1; 6HR MAX TEMP:  10;

HOUGHTON       LGT SNOW  11   5  77 NW13      30.23R WCI  -4
6HR MIN TEMP:  11; 6HR MAX TEMP:  15; 6HR PCP: TRACE;

COPPER HARBOR    N/A     16  12  84 N22       30.24R WCI  -2
6HR MIN TEMP:  16; 6HR MAX TEMP:  20;

IRONWOOD       CLOUDY     7   3  85 W8        30.26R WCI  -6
6HR MIN TEMP:   7; 6HR MAX TEMP:  10;

$$

ABBREVIATIONS USED IN REMARKS
   TC - TEMPERATURE IN CELSIUS
  WCI - WIND CHILL INDEX
   HX - HEAT INDEX
  VSB - VISIBILITY



USA.gov is the U.S. government's official web portal to all federal, state and local government web resources and services.